Showing default

HAKUTO-R, 62717

Orbit data source: Space-Track

HAKUTO-R, 62717 is a payload satellite owned by iSpace (JP) in HEO that was launched on Wed, 15 Jan 2025 UTC via an FALCON 9 launch vehicle from the Air Force Eastern Test Range (AFETR). Payload-class satellites include a variety of spacecraft equipped with specific instruments for various scientific and technological missions. These include communications satellites like Starlink; space stations such as the ISS; scientific satellites like the Hubble; Earth observation satellites from companies like Planet Labs, Umbra, and HawkEye 360; GPS; miniature CubeSats for education and research; and military/defense satellites.

Loading next visibility...
Identifier
62717, 2025-010B
Orbit
HEO
Last TLE update
4 months ago
Origin
Manufacturer
ISPACE/ADSL
Mission
Operational Commercial Planetary
Bus & Motor
HAKUTO-R, AOCS
Mass
1,050 kg wet, 340 kg dry
Launch date (UTC)
2025-01-15 (4 months ago)
Launch vehicle
FALCON 9
Launch site
Air Force Eastern Test Range (AFETR)
Object type
Payload
Rocket body
Debris
Shape & HBR
Box + 4 Leg, 2.6 m
Radar Cross Section
9.360 m²

Expand to show TLE details & history

TLE from 4 months ago
0 HAKUTO-R
1 62717U 25010B   25015.31796730 -.00038243  31373-4  00000-0 0  9992
2 62717  35.1700   0.1839 9650900 345.5700   0.7230  0.10673359    01
Epoch: 2025-01-15T07:37Z
Definitive object data (Epoch: 2025-01-15T07:37:52.374Z)
Latitude
25.60567°
Longitude
-93.6906°
Altitude
59,588.328 km
Speed
3.156 km/s
True Right ascension
09h 03m 09s
True Declination
25° 35' 28"
Sunlit
Object was in daylight at TLE epoch
Visualization TLE readout
Latitude
15.46087°
Longitude
-72.82246°
Altitude
175,530.461 km
Speed
1.503 km/s
Apparent Right ascension
10h 20m 40s
Apparent Declination
14° 21' 35"
Sunlit
Object is in daylight
Visualization observer readout
Local Sidereal Time
14:54:50
Azimuth
267.639° W
Elevation
25.527°
Doppler factor
1
Orbital elements
Apogee altitude
362,541.96 km
Perigee altitude
175.762 km
Semi-major axis
187,736.998 km
Eccentricity
0.96509
Inclination
35.17°
RAAN
0.1839°
Arg. of periapsis
345.57°
True anomaly
91.19139°
Mean anomaly
0.723°
Eccentric anomaly
15.49915°
Mean motion
0.02668 °/min
BSTAR
Unknown
Orbital period
13492.24 mins
Loading maneuver chart data...
Loading SW <> Apogee altitude chart data...
Loading historical data...
Loading historical data...
Loading historical data...
Loading historical data...
Loading historical data...
Loading historical data...
Loading historical data...
Other satellites on launch #10 in the year 2025 (2025-01-15 UTC)

HAKUTO-R Visibility forecast

Observer location: undefined°, undefined°

Span
Click to sort rows by Start time (UTC) header in descending order
Start Az.
Max El. time (UTC)
Max El. Az.
Max El.
End time (UTC)
End Az.
80 mins2025-05-09 06:45:57.199Z267.635° W2025-05-09 06:45:57.199Z267.635° W23.312°2025-05-09 08:05:57.199Z279.608° WNW
594 mins2025-05-09 20:51:57.199Z83.501° E2025-05-10 02:34:57.199Z179.899° S41.2°2025-05-10 06:45:57.199Z260.442° W
|